AWC77C EGAC-EGPD

Flight info

Callsign AWC77C
Flight time 0h 43m
Altitude 25000
Route MAGEE DCT BLACA P600 TRN DCT GRICE DCT FINDO P600 NAXIL
Aircraft A320/M-SDE3FGHIRWY/LB1

Departure

Time 2026-05-01 12:23
Airport George Best Belfast City Airport (EGAC)

Arrival

Time 2026-05-01 13:07
Airport Aberdeen International Airport (EGPD)
Time Latitude Longitude Altitude Speed Heading
2026-05-01 12:10 54.61570 -5.87058 21 ft 0 kts 124°
2026-05-01 12:16 54.61578 -5.87080 21 ft 4 kts 118°
2026-05-01 12:17 54.61588 -5.87122 23 ft 4 kts 93°
2026-05-01 12:17 54.61583 -5.87160 21 ft 3 kts 36°
2026-05-01 12:17 54.61577 -5.87168 22 ft 0 kts 33°
2026-05-01 12:20 54.61586 -5.87157 21 ft 5 kts 33°
2026-05-01 12:20 54.61635 -5.87101 21 ft 12 kts 34°
2026-05-01 12:20 54.61725 -5.87002 21 ft 18 kts 21°
2026-05-01 12:21 54.61813 -5.87126 17 ft 20 kts 304°
2026-05-01 12:21 54.61893 -5.87133 18 ft 13 kts 39°
2026-05-01 12:21 54.61994 -5.87028 16 ft 20 kts 27°
2026-05-01 12:21 54.62126 -5.86877 18 ft 26 kts 35°
2026-05-01 12:22 54.62280 -5.86697 20 ft 27 kts 34°
2026-05-01 12:22 54.62443 -5.86552 21 ft 21 kts 15°
2026-05-01 12:22 54.62457 -5.86481 20 ft 1 kts 208°
2026-05-01 12:22 54.62405 -5.86538 23 ft 37 kts 214°
2026-05-01 12:23 54.61950 -5.87076 16 ft 118 kts 215°
2026-05-01 12:23 54.61124 -5.88031 264 ft 153 kts 212°
2026-05-01 12:23 54.60270 -5.89135 1051 ft 156 kts 213°
2026-05-01 12:23 54.59379 -5.90246 1877 ft 157 kts 211°
2026-05-01 12:24 54.58454 -5.91388 2336 ft 174 kts 214°
2026-05-01 12:24 54.57414 -5.92692 2682 ft 196 kts 214°
2026-05-01 12:24 54.56225 -5.94114 3012 ft 220 kts 207°
2026-05-01 12:24 54.54681 -5.94720 3470 ft 241 kts 175°
2026-05-01 12:25 54.53068 -5.93792 4229 ft 252 kts 149°
2026-05-01 12:25 54.51341 -5.88567 6015 ft 274 kts 94°
2026-05-01 12:25 54.51813 -5.85336 6849 ft 290 kts 63°
2026-05-01 12:26 54.53088 -5.82639 7671 ft 298 kts 51°
2026-05-01 12:26 54.55962 -5.77314 9378 ft 305 kts 51°
2026-05-01 12:26 54.57418 -5.74622 10203 ft 309 kts 51°
2026-05-01 12:27 54.58925 -5.71809 10514 ft 331 kts 51°
2026-05-01 12:27 54.62153 -5.65740 11515 ft 353 kts 51°
2026-05-01 12:28 54.65512 -5.59419 12926 ft 361 kts 51°
2026-05-01 12:28 54.67220 -5.56196 13640 ft 365 kts 51°
2026-05-01 12:28 54.70676 -5.49644 14910 ft 372 kts 51°
2026-05-01 12:29 54.72423 -5.46321 15531 ft 375 kts 51°
2026-05-01 12:29 54.74187 -5.42960 16154 ft 379 kts 51°
2026-05-01 12:29 54.77866 -5.36309 17372 ft 389 kts 40°
2026-05-01 12:30 54.82413 -5.31036 18593 ft 396 kts 36°
2026-05-01 12:30 54.84731 -5.28407 19145 ft 400 kts 36°
2026-05-01 12:30 54.87069 -5.25759 19686 ft 403 kts 36°
2026-05-01 12:31 54.89429 -5.23084 20239 ft 407 kts 36°
2026-05-01 12:31 54.91806 -5.20382 20786 ft 410 kts 36°
2026-05-01 12:31 54.94203 -5.17647 21308 ft 414 kts 36°
2026-05-01 12:31 54.96616 -5.14889 21822 ft 417 kts 36°
2026-05-01 12:32 54.99049 -5.12105 22334 ft 421 kts 36°
2026-05-01 12:32 55.03979 -5.06451 23380 ft 428 kts 36°
2026-05-01 12:32 55.06474 -5.03578 23862 ft 431 kts 36°
2026-05-01 12:33 55.08983 -5.00680 24297 ft 434 kts 36°
2026-05-01 12:33 55.11505 -4.97755 24730 ft 437 kts 36°
2026-05-01 12:33 55.14013 -4.94840 25045 ft 439 kts 36°
2026-05-01 12:33 55.16525 -4.91919 25119 ft 432 kts 36°
2026-05-01 12:34 55.18995 -4.89044 25135 ft 422 kts 36°
2026-05-01 12:34 55.21425 -4.86205 25137 ft 419 kts 36°
2026-05-01 12:34 55.23841 -4.83371 25133 ft 418 kts 36°
2026-05-01 12:34 55.26256 -4.80531 25132 ft 417 kts 36°
2026-05-01 12:35 55.28660 -4.77699 25134 ft 417 kts 36°
2026-05-01 12:35 55.30292 -4.75781 25136 ft 417 kts 36°
2026-05-01 12:35 55.32709 -4.72950 25135 ft 417 kts 36°
2026-05-01 12:35 55.35127 -4.70127 25136 ft 418 kts 36°
2026-05-01 12:36 55.37546 -4.67307 25138 ft 417 kts 36°
2026-05-01 12:36 55.39964 -4.64482 25136 ft 418 kts 36°
2026-05-01 12:36 55.42354 -4.61682 25139 ft 418 kts 36°
2026-05-01 12:36 55.44768 -4.58842 25134 ft 418 kts 36°
2026-05-01 12:37 55.47175 -4.56008 25145 ft 418 kts 36°
2026-05-01 12:37 55.49591 -4.53155 25135 ft 418 kts 36°
2026-05-01 12:37 55.52006 -4.50299 25141 ft 418 kts 36°
2026-05-01 12:37 55.54429 -4.47436 25143 ft 418 kts 36°
2026-05-01 12:38 55.56844 -4.44580 25143 ft 419 kts 36°
2026-05-01 12:38 55.59265 -4.41711 25140 ft 419 kts 36°
2026-05-01 12:38 55.61684 -4.38832 25140 ft 419 kts 36°
2026-05-01 12:38 55.64105 -4.35945 25144 ft 420 kts 36°
2026-05-01 12:39 55.66524 -4.33055 25140 ft 419 kts 36°
2026-05-01 12:39 55.68945 -4.30160 25146 ft 420 kts 36°
2026-05-01 12:39 55.71362 -4.27267 25144 ft 420 kts 36°
2026-05-01 12:39 55.73784 -4.24363 25146 ft 419 kts 36°
2026-05-01 12:40 55.76201 -4.21462 25150 ft 419 kts 36°
2026-05-01 12:40 55.78619 -4.18562 25150 ft 419 kts 36°
2026-05-01 12:40 55.81037 -4.15654 25144 ft 419 kts 36°
2026-05-01 12:40 55.83456 -4.12740 25141 ft 419 kts 36°
2026-05-01 12:41 55.85867 -4.09832 25152 ft 420 kts 36°
2026-05-01 12:41 55.88285 -4.06909 25153 ft 420 kts 36°
2026-05-01 12:41 55.90701 -4.03986 25152 ft 420 kts 36°
2026-05-01 12:41 55.93161 -4.01000 25129 ft 434 kts 36°
2026-05-01 12:42 55.95669 -3.97949 25132 ft 439 kts 36°
2026-05-01 12:42 55.98164 -3.94910 25125 ft 440 kts 36°
2026-05-01 12:42 56.00695 -3.91827 25128 ft 441 kts 36°
2026-05-01 12:42 56.03231 -3.88739 25128 ft 441 kts 36°
2026-05-01 12:43 56.05796 -3.85610 25125 ft 441 kts 36°
2026-05-01 12:43 56.08296 -3.82554 25123 ft 441 kts 36°
2026-05-01 12:43 56.10827 -3.79452 25132 ft 441 kts 36°
2026-05-01 12:43 56.13353 -3.76345 25130 ft 441 kts 36°
2026-05-01 12:44 56.15882 -3.73234 25135 ft 438 kts 36°
2026-05-01 12:44 56.18360 -3.70186 25000 ft 428 kts 36°
2026-05-01 12:44 56.23213 -3.64196 24326 ft 420 kts 36°
2026-05-01 12:45 56.28007 -3.58253 23541 ft 416 kts 36°
2026-05-01 12:45 56.30367 -3.55320 23101 ft 414 kts 36°
2026-05-01 12:45 56.32741 -3.52364 22661 ft 411 kts 36°
2026-05-01 12:46 56.35079 -3.49443 22227 ft 407 kts 36°
2026-05-01 12:46 56.37404 -3.46539 21814 ft 405 kts 36°
2026-05-01 12:46 56.39710 -3.43657 21386 ft 401 kts 36°
2026-05-01 12:46 56.41998 -3.40797 20949 ft 398 kts 36°
2026-05-01 12:47 56.44265 -3.37951 20522 ft 395 kts 36°
2026-05-01 12:47 56.46515 -3.35124 20090 ft 393 kts 36°
2026-05-01 12:47 56.48757 -3.32309 19687 ft 390 kts 36°
2026-05-01 12:47 56.50950 -3.29555 19281 ft 387 kts 36°
2026-05-01 12:48 56.53156 -3.26782 18868 ft 385 kts 36°
2026-05-01 12:48 56.55345 -3.24021 18469 ft 382 kts 36°
2026-05-01 12:48 56.57519 -3.21271 18016 ft 380 kts 36°
2026-05-01 12:48 56.59685 -3.18529 17567 ft 378 kts 36°
2026-05-01 12:49 56.61831 -3.15810 17126 ft 375 kts 36°
2026-05-01 12:49 56.63961 -3.13112 16677 ft 373 kts 36°
2026-05-01 12:49 56.66078 -3.10425 16250 ft 370 kts 36°
2026-05-01 12:49 56.68188 -3.07740 15816 ft 368 kts 36°
2026-05-01 12:50 56.70279 -3.05072 15397 ft 366 kts 36°
2026-05-01 12:50 56.72351 -3.02418 14967 ft 364 kts 36°
2026-05-01 12:50 56.74413 -2.99771 14557 ft 361 kts 36°
2026-05-01 12:50 56.76463 -2.97145 14156 ft 359 kts 36°
2026-05-01 12:51 56.78467 -2.94578 13754 ft 357 kts 36°
2026-05-01 12:51 56.80531 -2.91935 13315 ft 355 kts 36°
2026-05-01 12:51 56.84495 -2.86897 12791 ft 341 kts 36°
2026-05-01 12:52 56.86432 -2.84429 12449 ft 338 kts 36°
2026-05-01 12:52 56.90269 -2.79528 11768 ft 335 kts 36°
2026-05-01 12:52 56.92169 -2.77101 11433 ft 332 kts 36°
2026-05-01 12:53 56.95945 -2.72276 10744 ft 329 kts 33°
2026-05-01 12:53 56.97902 -2.70136 10441 ft 326 kts 30°
2026-05-01 12:53 56.99847 -2.68103 10258 ft 318 kts 30°
2026-05-01 12:54 57.01757 -2.66118 9940 ft 315 kts 30°
2026-05-01 12:54 57.05540 -2.62171 9301 ft 311 kts 30°
2026-05-01 12:54 57.07409 -2.60207 8995 ft 308 kts 30°
2026-05-01 12:55 57.11225 -2.56708 8404 ft 304 kts 25°
2026-05-01 12:55 57.13125 -2.55028 8136 ft 302 kts 25°
2026-05-01 12:55 57.15010 -2.53351 7848 ft 300 kts 25°
2026-05-01 12:56 57.16881 -2.51671 7568 ft 298 kts 25°
2026-05-01 12:56 57.18713 -2.50017 7270 ft 296 kts 25°
2026-05-01 12:56 57.20579 -2.48323 6997 ft 294 kts 25°
2026-05-01 12:56 57.22406 -2.46652 6748 ft 292 kts 25°
2026-05-01 12:57 57.24190 -2.45004 6453 ft 290 kts 25°
2026-05-01 12:57 57.27774 -2.41689 5852 ft 286 kts 25°
2026-05-01 12:57 57.29547 -2.40051 5571 ft 285 kts 25°
2026-05-01 12:58 57.31313 -2.38425 5288 ft 283 kts 25°
2026-05-01 12:58 57.33072 -2.36807 4987 ft 280 kts 24°
2026-05-01 12:58 57.34783 -2.35234 4667 ft 269 kts 25°
2026-05-01 12:59 57.38034 -2.32263 4062 ft 258 kts 25°
2026-05-01 12:59 57.39556 -2.30504 3748 ft 258 kts 45°
2026-05-01 12:59 57.40496 -2.24488 3150 ft 253 kts 109°
2026-05-01 13:00 57.38279 -2.20300 2547 ft 225 kts 171°
2026-05-01 13:00 57.36747 -2.20435 2520 ft 220 kts 194°
2026-05-01 13:01 57.34161 -2.22602 2508 ft 195 kts 218°
2026-05-01 13:01 57.33124 -2.24147 2499 ft 187 kts 220°
2026-05-01 13:01 57.31002 -2.26581 2375 ft 179 kts 194°
2026-05-01 13:02 57.29743 -2.26687 2148 ft 185 kts 174°
2026-05-01 13:07 57.20125 -2.20175 247 ft 7 kts 306°
2026-05-01 13:07 57.20111 -2.20238 247 ft 6 kts 245°
2026-05-01 13:07 57.20102 -2.20279 247 ft 0 kts 248°